N4RCT Weather Reports


Display with metric or nautical units.
time (UTC)temp
F
wind
direction
speed
MPH
gust
MPH
rain 1hr
in
rain 24hr
in
rain mn
in
humidity
%
barometer
mb
20260510091011 57 110 0.0 0.0 0.00 0.00 0.00 99 1014.1
20260510090509 57 103 0.0 0.0 0.00 0.00 0.00 99 1013.7
20260510090004 57 97 0.0 0.0 0.00 0.00 0.00 99 1013.7
20260510085459 56 97 0.0 0.0 0.00 0.00 0.00 99 1013.8
20260510084955 56 97 0.0 0.0 0.00 0.00 0.00 99 1013.7
20260510084452 57 97 0.0 0.0 0.00 0.00 0.00 99 1013.7
20260510083949 57 97 0.0 0.0 0.00 0.00 0.00 99 1013.8
20260510083445 57 97 0.0 0.0 0.00 0.00 0.00 99 1013.5
20260510082941 57 97 0.0 0.0 0.00 0.00 0.00 99 1013.3
20260510082439 57 97 0.0 0.0 0.00 0.00 0.00 99 1013.3
20260510081938 57 97 0.0 0.0 0.00 0.00 0.00 99 1013.3
20260510081434 57 97 0.0 0.0 0.00 0.00 0.00 99 1013.2
20260510080930 57 97 0.0 0.0 0.00 0.00 0.00 99 1013.3
20260510080429 57 97 0.0 0.0 0.00 0.00 0.00 99 1013.1
20260510075926 57 97 0.0 0.0 0.00 0.00 0.00 99 1013.2
20260510075424 58 97 0.0 0.0 0.00 0.00 0.00 99 1013.2
20260510074921 58 97 0.0 0.0 0.00 0.00 0.00 99 1013.1
20260510074418 58 97 0.0 0.0 0.00 0.00 0.00 99 1013.2
20260510073914 58 97 0.0 0.0 0.00 0.00 0.00 99 1013.0
20260510073409 58 97 0.0 0.0 0.00 0.00 0.00 99 1013.3
20260510072906 58 97 0.0 0.0 0.00 0.00 0.00 99 1013.3
20260510072403 58 97 0.0 0.0 0.00 0.00 0.00 99 1013.1
20260510071858 58 97 0.0 0.0 0.00 0.00 0.00 99 1013.1
20260510071355 58 97 0.0 0.0 0.00 0.00 0.00 99 1013.0
20260510070854 58 97 0.0 0.0 0.00 0.00 0.00 99 1013.1
20260510070350 58 97 0.0 0.0 0.00 0.00 0.00 99 1013.2
20260510065850 58 97 0.0 0.0 0.00 0.00 0.00 99 1013.1
20260510065348 58 99 0.0 0.0 0.00 0.00 0.00 99 1013.2
20260510064844 58 99 0.0 0.0 0.00 0.00 0.00 99 1013.2
20260510064342 58 99 0.0 0.0 0.00 0.00 0.00 99 1013.0
20260510063838 58 99 0.0 0.0 0.00 0.00 0.00 99 1013.1
20260510063335 58 99 0.0 0.0 0.00 0.00 0.00 99 1013.2
20260510062832 58 99 0.0 0.0 0.00 0.00 0.00 99 1013.3
20260510062327 59 99 0.0 0.0 0.00 0.00 0.00 99 1013.1
20260510061822 59 99 0.0 0.0 0.00 0.00 0.00 99 1013.2
20260510061320 59 99 0.0 0.0 0.00 0.00 0.00 99 1013.1
20260510060815 59 99 0.0 0.0 0.00 0.00 0.00 99 1013.1
20260510060313 59 99 0.0 0.0 0.00 0.00 0.00 99 1013.1
20260510055809 59 99 0.0 0.0 0.00 0.00 0.00 99 1013.1
20260510055308 59 99 0.0 0.0 0.00 0.00 0.00 99 1013.2
20260510054807 59 99 0.0 0.0 0.00 0.00 0.00 99 1013.1
20260510054303 60 98 0.0 0.0 0.00 0.00 0.00 99 1013.1
20260510053758 60 101 0.0 0.0 0.00 0.00 0.00 99 1013.6
20260510053254 60 101 0.0 0.0 0.00 0.00 0.00 99 1013.3
20260510052750 60 101 0.0 0.0 0.00 0.00 0.00 99 1013.3
20260510052246 60 100 0.0 0.0 0.00 0.00 0.00 99 1013.2
20260510051742 60 101 0.0 0.0 0.00 0.00 0.00 99 1013.2
20260510051239 60 103 0.0 0.0 0.00 0.00 0.00 99 1013.6
20260510050736 60 104 0.0 0.0 0.00 0.00 0.00 99 1013.6
20260510050233 60 106 0.0 0.0 0.00 0.00 0.00 99 1013.6
20260510045730 61 107 0.0 0.0 0.00 0.00 0.00 99 1013.7
20260510045226 61 107 0.0 0.0 0.00 0.00 0.00 99 1013.8
20260510044722 61 107 0.0 0.0 0.00 0.00 0.00 99 1013.5
20260510044221 61 106 0.0 0.0 0.00 0.00 0.00 99 1013.7
20260510043716 62 107 0.0 0.0 0.00 0.00 0.00 99 1013.7
20260510043213 62 107 0.0 0.0 0.00 0.00 0.00 99 1013.7
20260510042710 62 107 0.0 0.0 0.00 0.00 0.00 99 1013.7
20260510042206 62 108 0.0 0.0 0.00 0.00 0.00 99 1013.8
20260510041703 62 108 0.0 0.0 0.00 0.00 0.00 99 1013.8
20260510041200 62 119 0.0 0.0 0.00 0.00 0.00 99 1013.8
20260510040657 62 96 0.0 0.0 0.00 0.00 0.00 99 1013.9
20260510040154 62 96 0.0 0.0 0.00 0.00 0.00 99 1013.8
20260510035650 62 96 0.0 0.0 0.00 0.00 0.00 99 1013.8
20260510035145 62 95 0.0 0.0 0.00 0.00 0.00 99 1013.8
20260510034642 62 101 0.0 0.0 0.00 0.00 0.00 99 1014.0
20260510034139 62 136 0.0 0.0 0.00 0.00 0.00 99 1013.7
20260510033635 62 136 0.0 0.0 0.00 0.00 0.00 99 1013.8
20260510033133 62 129 0.0 0.0 0.00 0.00 0.00 99 1014.0
20260510032629 62 141 0.0 0.0 0.00 0.00 0.00 99 1013.7
20260510032125 62 133 0.0 0.0 0.00 0.00 0.00 99 1013.6
20260510031620 62 150 0.0 0.0 0.00 0.00 0.00 99 1013.6
20260510031117 62 92 0.0 0.0 0.00 0.00 0.00 99 1013.3
20260510030611 62 92 0.0 0.0 0.00 0.00 0.00 99 1013.5
20260510030109 62 92 0.0 0.0 0.00 0.00 0.00 99 1013.2
20260510025606 62 92 0.0 0.0 0.00 0.00 0.00 98 1013.2
20260510025104 62 94 0.0 0.0 0.00 0.00 0.00 99 1013.2
20260510024600 63 93 0.0 0.0 0.00 0.00 0.00 99 1012.9
20260510024057 63 104 0.0 0.0 0.00 0.00 0.00 99 1013.1
20260510023553 63 104 0.0 0.0 0.00 0.00 0.00 99 1013.1
20260510023051 62 107 0.0 0.0 0.00 0.00 0.00 99 1012.9
20260510022549 62 120 0.0 0.0 0.00 0.00 0.00 98 1012.9
20260510022044 63 130 0.0 0.0 0.00 0.00 0.00 98 1012.9
20260510021541 63 109 0.0 0.0 0.00 0.00 0.00 98 1012.8
20260510021039 63 109 0.0 0.0 0.00 0.00 0.00 98 1012.7
20260510020538 63 109 0.0 0.0 0.00 0.00 0.00 98 1012.8
20260510020034 63 109 0.0 0.0 0.00 0.00 0.00 98 1012.4
20260510015530 64 109 0.0 0.0 0.00 0.00 0.00 98 1012.4
20260510015026 64 109 0.0 0.0 0.00 0.00 0.00 98 1012.3
20260510014523 64 110 0.0 0.0 0.00 0.00 0.00 98 1012.3
20260510014020 64 110 0.0 0.0 0.00 0.00 0.00 97 1012.2
20260510013515 64 118 0.0 0.0 0.00 0.00 0.00 97 1012.2
20260510013011 64 110 0.0 0.0 0.00 0.00 0.00 97 1012.0
20260510012505 64 109 0.0 0.0 0.00 0.00 0.00 97 1011.9
20260510012001 64 110 0.0 0.0 0.00 0.00 0.00 97 1011.9
20260510011455 64 119 0.0 0.0 0.00 0.00 0.00 97 1012.0
20260510010951 65 132 0.0 0.0 0.00 0.00 0.00 97 1011.9
20260510010449 65 129 0.0 0.0 0.00 0.00 0.00 96 1012.0
20260510005946 65 124 0.0 0.0 0.00 0.00 0.00 96 1011.8
20260510005442 66 124 0.0 0.0 0.00 0.00 0.00 95 1011.7
20260510004939 66 124 0.0 0.0 0.00 0.00 0.00 95 1011.7
20260510004436 66 124 0.0 0.0 0.00 0.00 0.00 95 1011.7
20260510003934 66 124 0.0 0.0 0.00 0.00 0.00 94 1011.7
20260510003431 66 124 0.0 0.0 0.00 0.00 0.00 93 1011.6
20260510002930 67 124 0.0 0.0 0.00 0.00 0.00 93 1011.6
20260510002427 67 124 0.0 0.0 0.00 0.00 0.00 93 1011.6
20260510001924 67 124 0.0 0.0 0.00 0.00 0.00 93 1011.5
20260510001421 68 124 0.0 0.0 0.00 0.00 0.00 92 1011.4
20260510000918 68 122 0.0 0.0 0.00 0.00 0.00 91 1011.6
20260510000411 68 121 0.0 0.0 0.00 0.00 0.00 89 1011.4
20260509235906 69 122 0.0 0.0 0.00 0.00 0.00 87 1011.4
20260509235403 69 122 0.0 0.0 0.00 0.00 0.00 85 1011.3
20260509234858 70 122 0.0 0.0 0.00 0.00 0.00 84 1011.2
20260509234356 70 121 0.0 0.0 0.00 0.00 0.00 83 1011.1
20260509233854 70 121 0.0 0.0 0.00 0.00 0.00 83 1011.2
20260509233351 71 121 0.0 0.0 0.00 0.00 0.00 82 1011.2
20260509232846 71 121 0.0 0.0 0.00 0.00 0.00 82 1011.5
20260509232345 71 121 0.0 0.0 0.00 0.00 0.00 81 1011.5
20260509231841 71 110 0.0 0.0 0.00 0.00 0.00 82 1011.1
20260509231338 72 110 0.0 0.0 0.00 0.00 0.00 81 1011.0
20260509230836 72 110 0.0 0.0 0.00 0.00 0.00 80 1011.0
20260509230332 72 110 0.0 0.0 0.00 0.00 0.00 79 1010.9
20260509225827 72 110 0.0 0.0 0.00 0.00 0.00 78 1010.9
20260509225325 73 110 0.0 0.0 0.00 0.00 0.00 79 1011.0
20260509224821 73 110 0.0 0.0 0.00 0.00 0.00 78 1011.1
20260509224317 73 110 0.0 0.0 0.00 0.00 0.00 77 1010.9
20260509223814 73 110 0.0 0.0 0.00 0.00 0.00 76 1010.8
20260509223310 73 123 0.0 0.0 0.00 0.00 0.00 74 1010.8
20260509222807 73 103 0.0 0.0 0.00 0.00 0.00 74 1010.8
20260509222306 73 140 0.0 0.0 0.00 0.00 0.00 75 1010.8
20260509221758 74 136 2.0 2.0 0.00 0.00 0.00 72 1010.7
20260509221256 74 129 0.0 0.0 0.00 0.00 0.00 75 1010.8
20260509220751 74 151 0.0 0.0 0.00 0.00 0.00 75 1010.9
20260509220248 74 151 0.0 0.0 0.00 0.00 0.00 74 1010.4
20260509215743 74 99 0.0 0.0 0.00 0.00 0.00 71 1010.5
20260509215240 74 92 0.0 0.0 0.00 0.00 0.00 72 1010.7
20260509214737 74 114 0.0 0.0 0.00 0.00 0.00 76 1010.5
20260509214234 73 112 0.0 0.0 0.00 0.00 0.00 74 1010.3
20260509213731 73 154 0.0 0.0 0.00 0.00 0.00 75 1010.6
20260509213226 74 130 0.0 0.0 0.00 0.00 0.00 72 1010.5
20260509212724 74 154 0.0 0.0 0.00 0.00 0.00 72 1010.5
20260509212221 74 90 0.0 0.0 0.00 0.00 0.00 71 1010.5
20260509211717 75 139 1.0 1.0 0.00 0.00 0.00 70 1010.2
20260509211214 75 134 0.0 0.0 0.00 0.00 0.00 70 1010.3
20260509210710 75 135 0.0 0.0 0.00 0.00 0.00 73 1010.2
20260509210208 75 128 0.0 0.0 0.00 0.00 0.00 73 1010.1
20260509205707 75 130 0.0 0.0 0.00 0.00 0.00 72 1010.1
20260509205207 74 93 0.0 0.0 0.00 0.00 0.00 72 1010.7
20260509204703 74 98 0.0 0.0 0.00 0.00 0.00 73 1010.5
20260509204200 75 120 0.0 0.0 0.00 0.00 0.00 72 1010.6
20260509203655 76 98 0.0 0.0 0.00 0.00 0.00 71 1010.4
20260509203154 75 161 0.0 0.0 0.00 0.00 0.00 70 1010.3
20260509202650 75 116 0.0 0.0 0.00 0.00 0.00 73 1010.3
20260509202144 75 124 0.0 0.0 0.00 0.00 0.00 70 1010.3
20260509201640 75 166 1.0 1.0 0.00 0.00 0.00 71 1010.5
20260509201137 75 90 0.0 0.0 0.00 0.00 0.00 70 1010.6
20260509200633 75 143 1.0 1.0 0.00 0.00 0.00 72 1010.5
20260509200128 74 205 1.0 2.0 0.00 0.00 0.00 72 1010.5
20260509195625 75 109 0.0 0.0 0.00 0.00 0.00 72 1010.4
20260509195120 74 146 0.0 0.0 0.00 0.00 0.00 75 1010.5
20260509194619 74 134 0.0 0.0 0.00 0.00 0.00 74 1010.7
20260509194117 75 208 1.0 1.0 0.00 0.00 0.00 73 1010.5
20260509193612 75 94 0.0 0.0 0.00 0.00 0.00 70 1010.4
20260509193108 74 92 0.0 0.0 0.00 0.00 0.00 71 1010.5
20260509192605 74 179 1.0 1.0 0.00 0.00 0.00 71 1010.6
20260509192054 75 137 0.0 0.0 0.00 0.00 0.00 71 1010.8
20260509191549 76 167 0.0 1.0 0.00 0.00 0.00 68 1011.0
20260509191045 75 156 0.0 0.0 0.00 0.00 0.00 70 1010.9
20260509190542 75 95 0.0 0.0 0.00 0.00 0.00 69 1010.9
20260509190040 76 181 0.0 1.0 0.00 0.00 0.00 69 1011.0
20260509185537 75 110 0.0 0.0 0.00 0.00 0.00 70 1010.9
20260509185033 72 93 0.0 0.0 0.00 0.00 0.00 73 1010.9
20260509184532 73 64 0.0 1.0 0.00 0.00 0.00 74 1010.9
20260509184028 73 207 2.0 2.0 0.00 0.00 0.00 72 1011.1
20260509183523 73 130 0.0 1.0 0.00 0.00 0.00 72 1011.2
20260509183019 73 329 1.0 1.0 0.00 0.00 0.00 74 1011.4
20260509182516 73 126 1.0 2.0 0.00 0.00 0.00 75 1011.2
20260509182013 74 149 0.0 0.0 0.00 0.00 0.00 73 1011.2
20260509181511 73 93 0.0 1.0 0.00 0.00 0.00 75 1011.2
20260509181010 72 184 2.0 3.0 0.00 0.00 0.00 77 1011.2
20260509180503 72 128 0.0 1.0 0.00 0.00 0.00 74 1011.2
20260509180002 71 180 1.0 2.0 0.00 0.00 0.00 78 1011.4
20260509175457 72 118 0.0 1.0 0.00 0.00 0.00 79 1011.4
20260509174954 71 90 0.0 0.0 0.00 0.00 0.00 76 1011.5
20260509174450 70 175 1.0 1.0 0.00 0.00 0.00 79 1011.3
20260509173944 70 175 1.0 2.0 0.00 0.00 0.00 81 1011.3
20260509173439 69 160 1.0 1.0 0.00 0.00 0.00 80 1011.4
20260509172936 69 157 0.0 0.0 0.00 0.00 0.00 80 1011.2
20260509172433 69 155 0.0 0.0 0.00 0.00 0.00 80 1011.3
20260509171929 68 166 0.0 0.0 0.00 0.00 0.00 81 1011.1
20260509171425 69 207 2.0 2.0 0.00 0.00 0.00 80 1011.4
20260509170922 68 126 0.0 0.0 0.00 0.00 0.00 81 1011.5
20260509170417 68 134 0.0 0.0 0.00 0.00 0.00 81 1011.6
20260509165913 69 171 0.0 1.0 0.00 0.00 0.00 81 1011.6
20260509165407 69 131 0.0 1.0 0.00 0.00 0.00 80 1011.8
20260509164903 69 118 0.0 1.0 0.00 0.00 0.00 82 1012.0
20260509164359 68 155 0.0 0.0 0.00 0.00 0.00 81 1011.8
20260509163855 68 102 0.0 0.0 0.00 0.00 0.00 85 1012.3
20260509163352 67 135 0.0 0.0 0.00 0.00 0.00 85 1012.1
20260509162851 66 215 2.0 2.0 0.00 0.00 0.00 85 1012.3
20260509162344 66 159 1.0 1.0 0.00 0.00 0.00 87 1012.4
20260509161841 66 122 0.0 0.0 0.00 0.00 0.00 89 1012.2
20260509161337 65 169 0.0 0.0 0.00 0.00 0.00 91 1012.4
20260509160833 65 156 1.0 2.0 0.00 0.00 0.00 90 1012.3
20260509160329 64 138 0.0 0.0 0.00 0.00 0.00 94 1012.1
20260509155824 63 125 0.0 0.0 0.00 0.00 0.00 94 1012.2
20260509155321 62 115 0.0 0.0 0.00 0.00 0.00 97 1012.5
20260509154817 62 139 0.0 0.0 0.00 0.00 0.00 98 1012.4
20260509154314 61 147 0.0 0.0 0.00 0.00 0.00 99 1012.2
20260509153811 61 139 0.0 0.0 0.00 0.00 0.00 99 1012.3
20260509153307 61 148 0.0 0.0 0.00 0.00 0.00 99 1012.2
20260509152804 61 143 0.0 0.0 0.00 0.00 0.00 99 1012.6
20260509152300 60 146 0.0 0.0 0.00 0.00 0.00 99 1012.6
20260509151757 60 155 0.0 0.0 0.00 0.00 0.00 99 1012.8
20260509151253 60 128 0.0 0.0 0.00 0.00 0.00 99 1012.3
20260509150752 60 136 0.0 0.0 0.00 0.00 0.00 99 1012.3
20260509150250 60 133 0.0 0.0 0.00 0.00 0.00 99 1012.7
20260509145747 60 137 0.0 0.0 0.00 0.00 0.00 99 1012.7
20260509145246 60 150 0.0 0.0 0.00 0.00 0.00 99 1012.6
20260509144743 60 185 0.0 1.0 0.00 0.00 0.00 99 1012.7
20260509144240 60 130 0.0 0.0 0.00 0.00 0.00 99 1012.5
20260509143737 60 131 0.0 0.0 0.00 0.00 0.00 99 1012.6
20260509143235 60 131 0.0 0.0 0.00 0.00 0.00 99 1012.6
20260509142730 60 129 0.0 0.0 0.00 0.00 0.00 99 1012.6
20260509142227 60 135 0.0 0.0 0.00 0.00 0.00 99 1012.5
20260509141722 59 116 0.0 0.0 0.00 0.00 0.00 99 1012.4
20260509141220 59 139 0.0 0.0 0.00 0.00 0.00 99 1012.2
20260509140716 60 149 0.0 0.0 0.00 0.00 0.00 99 1012.0
20260509140214 59 136 0.0 0.0 0.00 0.00 0.00 99 1012.0
20260509135711 59 94 0.0 0.0 0.00 0.00 0.00 99 1011.9
20260509135209 60 150 0.0 0.0 0.00 0.00 0.00 99 1011.7
20260509134705 59 128 0.0 0.0 0.00 0.00 0.00 99 1011.6
20260509134203 59 128 0.0 0.0 0.00 0.00 0.00 99 1011.4
20260509133700 59 129 0.0 0.0 0.00 0.00 0.00 99 1011.5
20260509133157 59 111 0.0 0.0 0.00 0.00 0.00 99 1011.4
20260509132655 59 113 0.0 0.0 0.00 0.00 0.00 98 1011.5
20260509132154 59 107 0.0 0.0 0.00 0.00 0.00 98 1011.5
20260509131649 59 117 0.0 0.0 0.00 0.00 0.00 99 1011.5
20260509131146 59 116 0.0 0.0 0.00 0.00 0.00 99 1011.6
20260509130642 59 129 0.0 0.0 0.00 0.00 0.00 99 1011.5
20260509130138 59 118 0.0 0.0 0.00 0.00 0.00 99 1011.6
20260509125635 58 117 0.0 0.0 0.00 0.00 0.00 99 1011.8
20260509125132 58 133 0.0 0.0 0.00 0.00 0.00 99 1011.8
20260509124628 58 110 0.0 0.0 0.00 0.00 0.00 99 1011.6
20260509124126 58 110 0.0 0.0 0.00 0.00 0.00 99 1011.6
20260509123623 58 116 0.0 0.0 0.00 0.00 0.00 99 1011.7
20260509123120 58 112 0.0 0.0 0.00 0.00 0.00 99 1011.5
20260509122616 57 112 0.0 0.0 0.00 0.00 0.00 99 1011.4
20260509122113 57 129 0.0 0.0 0.00 0.00 0.00 99 1011.5
20260509121609 57 116 0.0 0.0 0.00 0.00 0.00 99 1011.5
20260509121107 57 109 0.0 0.0 0.00 0.00 0.00 99 1011.5
20260509120605 57 112 0.0 0.0 0.00 0.00 0.00 99 1011.3
20260509120103 57 112 0.0 0.0 0.00 0.00 0.00 99 1011.2
20260509115600 57 115 0.0 0.0 0.00 0.00 0.00 99 1011.2
20260509115058 57 117 0.0 0.0 0.00 0.00 0.00 99 1011.2
20260509114556 57 117 0.0 0.0 0.00 0.00 0.00 99 1011.2
20260509114054 57 107 0.0 0.0 0.00 0.00 0.00 99 1010.9
20260509113552 57 112 0.0 0.0 0.00 0.00 0.00 99 1010.9
20260509113050 56 124 0.0 0.0 0.00 0.00 0.00 99 1010.9
20260509112546 56 131 0.0 0.0 0.00 0.00 0.00 99 1010.9
20260509112043 56 131 0.0 0.0 0.00 0.00 0.00 99 1011.1
20260509111540 56 131 0.0 0.0 0.00 0.00 0.00 99 1010.8
20260509111037 56 128 0.0 0.0 0.00 0.00 0.00 99 1011.1
20260509110534 56 128 0.0 0.0 0.00 0.00 0.00 99 1011.0
20260509110031 56 134 0.0 0.0 0.00 0.00 0.00 99 1011.1
20260509105529 56 118 0.0 0.0 0.00 0.00 0.00 99 1010.8
20260509105027 56 107 0.0 0.0 0.00 0.00 0.00 99 1010.8
20260509104523 56 116 0.0 0.0 0.00 0.00 0.00 99 1011.0
20260509104020 56 130 0.0 0.0 0.00 0.00 0.00 99 1011.0
20260509103518 56 108 0.0 0.0 0.00 0.00 0.00 99 1010.8
20260509103016 56 111 0.0 0.0 0.00 0.00 0.00 99 1010.7
20260509102513 55 117 0.0 0.0 0.00 0.00 0.00 99 1011.0
20260509102010 55 113 0.0 0.0 0.00 0.00 0.00 99 1011.0
20260509101506 55 115 0.0 0.0 0.00 0.00 0.00 99 1011.0
20260509101003 55 111 0.0 0.0 0.00 0.00 0.00 99 1011.2
20260509100500 55 115 0.0 0.0 0.00 0.00 0.00 99 1011.2
20260509095957 55 121 0.0 0.0 0.00 0.00 0.00 99 1011.2
20260509095454 55 115 0.0 0.0 0.00 0.00 0.00 99 1011.2
20260509094951 55 116 0.0 0.0 0.00 0.00 0.00 99 1011.0
20260509094447 55 115 0.0 0.0 0.00 0.00 0.00 99 1011.2
20260509093945 55 127 0.0 0.0 0.00 0.00 0.00 99 1011.4
20260509093442 55 128 0.0 0.0 0.00 0.00 0.00 99 1011.2
20260509092940 55 117 0.0 0.0 0.00 0.00 0.00 99 1011.1
20260509092438 55 115 0.0 0.0 0.00 0.00 0.00 99 1011.4
20260509091937 55 126 0.0 0.0 0.00 0.00 0.00 99 1011.7
20260509091433 54 126 0.0 0.0 0.00 0.00 0.00 99 1011.6